Showing default

METOP-C, 43689

Orbit data source: Space-Track

METOP-C, 43689 is a payload satellite owned by EUMETSAT (DE) in SSO that was launched on Wed, 07 Nov 2018 UTC via a SOYUZ-ST-B launch vehicle from the French Guiana (FRGUI). Payload-class satellites include a variety of spacecraft equipped with specific instruments for various scientific and technological missions. These include communications satellites like Starlink; space stations such as the ISS; scientific satellites like the Hubble; Earth observation satellites from companies like Planet Labs, Umbra, and HawkEye 360; GPS; miniature CubeSats for education and research; and military/defense satellites.

Loading next visibility...
Identifier
43689, 2018-087A
Orbit
SSO
Country
Flag of DEDE / EUME
Related business
Manufacturer
ADS/Bremen
Mission
Operational Civil Weather
Bus & Motor
METOP, AOCS
Mass
4,086 kg wet, 3,769 kg dry
Launch date (UTC)
2018-11-07 (8 years ago)
Launch vehicle
SOYUZ-ST-B
Launch site
French Guiana (FRGUI)
Object type
Payload
Rocket body
Debris
Shape & HBR
Box + 1 Pan, 5.0 m
Radar Cross Section
37.492 m², Large (>1 m²)

Expand to show TLE details & history
Last TLE update: 2 days ago

TLE from 2 days ago
0 METOP-C
1 43689U 18087A   26171.44664144  .00000064  00000-0  49212-4 0  9996
2 43689  98.6643 230.9907 0001880 125.1991 234.9363 14.21512882395295
Epoch: 2026-06-20T10:43Z
TLE epoch observation values (Epoch: 2026-06-20T10:43:09.820Z)
Latitude
0.00001°
Longitude
161.53864°
Altitude
823.937 km
Speed
7.441 km/s
True Right ascension
15h 23m 57s
True Declination
0° 00' 00"
Sunlit
Object was in full shadow at epoch
Visualization orbit readout
Latitude
Unknown
Longitude
Unknown
Altitude
Unknown
Speed
Unknown
Apparent Right ascension
Unknown
Apparent Declination
Unknown
Sunlit
N/A
Visualization observer readout
Local Sidereal Time
23:07:49
Azimuth
Unknown
Elevation
Unknown
Doppler factor
Unknown
Orbital elements
Apogee altitude
818.748 km
Perigee altitude
816.043 km
Semi-major axis
7,195.532 km
Eccentricity
0.00019
Inclination
98.6643°
RAAN
230.9907°
Arg. of periapsis
125.1991°
True anomaly
234.91867°
Mean anomaly
234.9363°
Eccentric anomaly
234.92748°
Mean motion
3.55589 °/min
Orbital period
101.24 mins
BSTAR
0.000049212
Loading maneuver chart data...
Computing Atmospheric mass density...
Loading historical data...
Loading historical data...
Loading historical data...
Loading historical data...
Loading historical data...
Loading historical data...
Loading historical data...
Other satellites on launch #87 in the year 2018 (2018-11-07 UTC)

Documentation

Showing up to 5 results
|